Regional Weather Roundup
Issued by NWS Goodland, KS

Home | Current Version | Previous Version | Text Only | Print | Product List | Glossary On
Versions: 1 2 3 4 5 6 7 8 9 10 11 12 13 14 15 16 17 18 19 20 21 22 23 24 25 26 27 28 29 30 31 32 33 34 35 36 37 38 39 40 41 42 43 44 45 46 47 48 49 50
000
ASUS43 KGLD 280608
RWRGLD

GOODLAND FORECAST AREA HOURLY WEATHER ROUNDUP
NATIONAL WEATHER SERVICE GOODLAND KS
1200 AM MDT THU MAY 28 2015

...OFFICIAL OBSERVATIONS...

CITY           SKY/WX    TMP DP  RH WIND       PRES   REMARKS
GOODLAND KS    MOCLDY    58  56  93 SE17G25   30.06F
HILL CITY KS   CLOUDY    64  61  90 S6        30.02F
IMPERIAL NEB   MOCLDY    57  53  86 S8        30.03F
MCCOOK NEB     CLOUDY    61  55  81 SW6       30.01F
AKRON CO       LGT RAIN  57  56  96 SE20G25   30.06S
BURLINGTON CO  MOCLDY    56  53  90 SE18      30.08F
LIMON CO       PTCLDY    52  52 100 SE12      30.11R
$$

...UNOFFICIAL OBSERVATIONS...

CITY           SKY/WX    TMP DP  RH WIND       PRES   REMARKS
COLBY KS       CLEAR     61  59  94 SE21G29   30.06F
GOVE KS          N/A     59  32  36 MISG        N/A
NORTON KS      CLEAR     63  57  82 SE9       30.00
SHARON SPRINGS   N/A     58  56  93 MISG        N/A
KIT CARSON CO    N/A     55  51  86 MISG        N/A
$$



USA.gov is the U.S. government's official web portal to all federal, state and local government web resources and services.